Location: Bucharest
(44.4268°N, 26.1025°E)
Time: 00:41:07
(UTC+03:00)

CUBESAT XI-V - Pass Details

Date: 30 June 2022
Orbit: 667 x 690 km, 98.1° (Epoch: 07 August)

Event Time Altitude Azimuth Distance (km) Brightness Sun altitude
Exits shadow 03:43:40 24° 223° (SW) 1,399 ? -14.8°
Maximum altitude 03:45:29 32° 264° (W) 1,161 ? -14.6°
Drops below altitude 10° 03:49:36 10° 327° (NNW) 2,110 ? -14.2°
Sets 03:52:03 0° 338° (NNW) 3,026 ? -13.9°
